Waarnemingen

Advertentie
Mijn weer
Beauvechain, België (6458): temperatuur & dauwpunt: 15.02.2019 15:00:00 - 21.02.2019 15:00:00 (CET)Beauvechain, België (6458): windsnelheid & windstoten: 15.02.2019 15:00:00 - 21.02.2019 15:00:00 (CET)Beauvechain, België (6458): windrichting: 15.02.2019 15:00:00 - 21.02.2019 15:00:00 (CET)Beauvechain, België (6458): luchtdruk: 15.02.2019 15:00:00 - 21.02.2019 15:00:00 (CET)Beauvechain, België (6458): zicht: 15.02.2019 15:00:00 - 21.02.2019 15:00:00 (CET)
Datum & Tijd tt [°C] td [°C] ff [km/u] ff [kn] fx [km/u] fx [kn] dd ppp [hPa] vv [km]
21.02.2019 15:00:00 12,9 5,9 14 8 25 14 WZW 1028,2 20
21.02.2019 14:00:00 13,1 6,1 16 9 25 14 WZW 1028,0 10
21.02.2019 13:00:00 12,4 6,2 14 8 - - WZW 1028,2 15
21.02.2019 12:00:00 11,5 5,4 11 6 18 10 WZW 1028,5 10
21.02.2019 11:00:00 9,1 5,4 7 4 25 14 WZW 1028,2 10
21.02.2019 10:00:00 9,1 5,6 14 8 - - ZW 1027,5 10
21.02.2019 09:00:00 7,0 4,6 7 4 14 8 ZW 1027,7 10
21.02.2019 08:00:00 5,5 3,3 11 6 18 10 ZZW 1026,9 10
21.02.2019 07:00:00 6,3 3,5 14 8 - - ZZW 1026,4 9
21.02.2019 06:00:00 7,0 3,6 11 6 14 8 ZW 1026,4 11
21.02.2019 05:00:00 7,1 3,8 7 4 18 10 WZW 1026,4 8
21.02.2019 04:00:00 6,6 3,9 14 8 - - ZZW 1026,5 8
21.02.2019 03:00:00 5,9 3,4 7 4 18 10 ZZW 1026,7 7
21.02.2019 02:00:00 6,6 3,6 14 8 18 10 ZZW 1026,0 10
21.02.2019 01:00:00 6,7 3,3 7 4 - - ZW 1026,0 11
21.02.2019 00:00:00 8,1 4,2 11 6 14 8 ZZW 1025,5 16
20.02.2019 23:00:00 7,9 4,1 7 4 11 6 Z 1025,5 12
20.02.2019 22:00:00 7,9 4,0 7 4 - - Z 1025,5 13
20.02.2019 21:00:00 6,8 3,4 11 6 14 8 ZZW 1025,5 14
20.02.2019 20:00:00 7,2 3,4 11 6 14 8 ZZW 1025,0 16
20.02.2019 19:00:00 7,9 3,3 11 6 - - ZZW 1024,5 16
20.02.2019 18:00:00 9,3 2,5 14 8 22 12 ZW 1024,2 20
20.02.2019 17:00:00 10,8 2,0 11 6 25 14 WZW 1023,8 20
20.02.2019 16:00:00 11,0 1,6 18 10 - - ZW 1024,0 20
20.02.2019 15:00:00 11,3 1,7 18 10 29 16 WZW 1023,7 20
20.02.2019 14:00:00 10,3 2,7 22 12 32 18 ZW 1023,8 20
20.02.2019 13:00:00 9,8 3,9 22 12 - - ZW 1024,0 10
20.02.2019 12:00:00 8,3 4,6 22 12 29 16 ZW 1024,2 10
20.02.2019 11:00:00 8,0 4,6 18 10 25 14 ZW 1024,0 10
20.02.2019 10:00:00 6,4 4,0 18 10 - - ZZW 1023,8 9
20.02.2019 09:00:00 4,6 2,9 11 6 18 10 ZZW 1023,2 7
20.02.2019 08:00:00 3,5 1,9 14 8 18 10 Z 1022,7 7
20.02.2019 07:00:00 3,7 1,8 11 6 - - Z 1022,2 7
20.02.2019 06:00:00 3,7 1,4 11 6 11 6 Z 1022,3 10
20.02.2019 05:00:00 3,7 1,3 11 6 14 8 Z 1022,2 12
20.02.2019 04:00:00 4,1 1,4 11 6 - - ZZW 1022,2 12
20.02.2019 03:00:00 4,2 1,3 7 4 11 6 ZW 1022,7 14
20.02.2019 02:00:00 4,3 1,4 11 6 14 8 ZZW 1022,7 15
20.02.2019 01:00:00 4,4 1,4 11 6 - - ZZW 1022,6 15
20.02.2019 00:00:00 5,0 1,7 7 4 11 6 ZW 1022,6 19
19.02.2019 23:00:00 5,6 1,8 11 6 14 8 ZW 1022,3 18
19.02.2019 22:00:00 6,3 2,1 11 6 - - ZW 1022,3 20
19.02.2019 21:00:00 6,5 2,1 11 6 14 8 ZZW 1022,2 10
19.02.2019 20:00:00 7,1 1,9 11 6 14 8 ZZW 1022,0 20
19.02.2019 19:00:00 7,0 1,8 11 6 - - ZZW 1021,7 20
19.02.2019 18:00:00 7,9 1,3 11 6 22 12 WZW 1021,3 20
19.02.2019 17:00:00 9,2 1,9 14 8 22 12 W 1021,2 20
19.02.2019 16:00:00 9,0 1,9 14 8 - - WZW 1021,2 20
19.02.2019 15:00:00 9,3 2,5 14 8 29 16 W 1021,3 20
19.02.2019 14:00:00 9,9 2,6 18 10 29 16 W 1021,2 20
19.02.2019 13:00:00 9,4 2,8 18 10 - - W 1021,2 20
19.02.2019 12:00:00 8,9 3,7 25 14 32 18 W 1021,3 20
19.02.2019 11:00:00 8,2 3,5 22 12 32 18 WZW 1021,1 15
19.02.2019 10:00:00 7,1 4,1 18 10 - - WZW 1020,8 15
19.02.2019 09:00:00 6,2 4,5 22 12 29 16 WZW 1020,6 10
19.02.2019 08:00:00 6,0 4,2 14 8 25 14 WZW 1019,8 10
19.02.2019 07:00:00 6,5 4,8 18 10 - - WZW 1019,1 10
19.02.2019 06:00:00 6,5 4,8 14 8 22 12 ZW 1018,8 17
19.02.2019 05:00:00 6,5 4,8 11 6 18 10 ZW 1018,5 13
19.02.2019 04:00:00 6,8 5,1 11 6 - - ZW 1018,2 10
19.02.2019 03:00:00 7,0 4,7 7 4 18 10 WZW 1018,2 15
19.02.2019 02:00:00 7,2 4,8 11 6 18 10 W 1018,0 11
19.02.2019 01:00:00 7,5 3,8 11 6 - - W 1017,6 17
19.02.2019 00:00:00 8,0 2,5 18 10 25 14 ZW 1017,2 20
18.02.2019 23:00:00 8,7 2,6 14 8 25 14 ZZW 1016,7 20
18.02.2019 22:00:00 8,6 2,5 18 10 - - ZZW 1016,7 20
18.02.2019 21:00:00 9,2 2,3 14 8 25 14 ZZW 1016,6 25
18.02.2019 20:00:00 9,3 1,4 11 6 22 12 ZZW 1016,5 25
18.02.2019 19:00:00 10,3 1,0 11 6 - - ZZW 1016,2 25
18.02.2019 18:00:00 11,8 2,1 14 8 22 12 ZZW 1016,1 25
18.02.2019 17:00:00 14,0 0,9 14 8 18 10 ZZW 1015,7 25
18.02.2019 16:00:00 14,8 0,9 14 8 - - ZZW 1015,7 25
18.02.2019 15:00:00 15,1 0,9 14 8 22 12 Z 1015,8 25
18.02.2019 14:00:00 15,1 0,9 14 8 22 12 ZZW 1016,5 25
18.02.2019 13:00:00 13,6 1,4 14 8 - - Z 1017,5 25
18.02.2019 12:00:00 12,0 1,0 18 10 22 12 Z 1018,2 25
18.02.2019 11:00:00 9,8 1,1 14 8 22 12 Z 1018,8 25
18.02.2019 10:00:00 8,2 -0,2 14 8 - - Z 1019,1 25
18.02.2019 09:00:00 7,0 -1,3 14 8 22 12 Z 1019,2 25
18.02.2019 08:00:00 6,7 -2,0 7 4 11 6 Z 1019,3 25
18.02.2019 07:00:00 7,2 -2,2 7 4 - - Z 1019,2 20
18.02.2019 06:00:00 7,4 -2,3 7 4 14 8 ZZW 1019,5 20
18.02.2019 05:00:00 7,3 -2,4 11 6 18 10 ZZW 1019,3 20
18.02.2019 04:00:00 7,3 -2,8 7 4 - - Z 1019,5 20
18.02.2019 03:00:00 7,5 -2,7 7 4 14 8 ZW 1019,7 20
18.02.2019 02:00:00 8,5 -2,6 7 4 14 8 ZZW 1019,8 20
18.02.2019 01:00:00 8,7 -2,1 11 6 - - Z 1020,0 20
18.02.2019 00:00:00 9,2 -1,9 11 6 14 8 ZZW 1020,0 20
17.02.2019 23:00:00 9,5 -1,7 7 4 18 10 ZZW 1020,2 20
17.02.2019 22:00:00 10,1 -1,9 14 8 - - ZZW 1020,2 20
17.02.2019 21:00:00 11,0 -2,4 14 8 22 12 Z 1020,0 20
17.02.2019 20:00:00 10,8 -1,8 14 8 18 10 Z 1020,1 20
17.02.2019 19:00:00 12,1 -1,4 14 8 - - Z 1019,7 20
17.02.2019 18:00:00 13,2 -0,8 14 8 22 12 Z 1019,2 20
17.02.2019 17:00:00 14,4 0,0 11 6 22 12 Z 1018,8 20
17.02.2019 16:00:00 15,6 -1,0 14 8 - - ZZW 1019,2 20
17.02.2019 15:00:00 15,8 -0,6 25 14 36 19 ZZW 1019,5 20
17.02.2019 14:00:00 15,7 1,5 14 8 25 14 ZZW 1019,8 20
17.02.2019 13:00:00 13,8 1,9 18 10 - - Z 1020,2 20
17.02.2019 12:00:00 12,2 1,5 14 8 22 12 Z 1021,0 17
17.02.2019 11:00:00 10,3 1,6 4 2 22 12 N 1021,2 17
17.02.2019 10:00:00 8,4 1,1 18 10 - - Z 1021,5 13
17.02.2019 09:00:00 7,2 0,8 18 10 25 14 ZZO 1021,7 14
17.02.2019 08:00:00 6,6 0,6 7 4 14 8 Z 1022,0 15
17.02.2019 07:00:00 6,2 0,0 4 2 - - - 1022,2 14
17.02.2019 06:00:00 7,4 0,0 7 4 11 6 Z 1022,6 17
17.02.2019 05:00:00 7,5 0,7 7 4 11 6 Z 1022,7 16
17.02.2019 04:00:00 7,3 1,0 4 2 - - N 1023,3 16
17.02.2019 03:00:00 7,3 0,9 7 4 7 4 Z 1023,8 17
17.02.2019 02:00:00 7,7 0,5 4 2 7 4 N 1024,2 16
17.02.2019 01:00:00 7,7 -0,2 4 2 - - - 1024,7 19
17.02.2019 00:00:00 8,7 0,0 7 4 14 8 Z 1024,9 19
16.02.2019 23:00:00 9,1 0,5 4 2 14 8 N 1025,2 19
16.02.2019 22:00:00 9,4 0,7 11 6 - - ZZW 1025,2 17
16.02.2019 21:00:00 10,4 0,4 11 6 14 8 Z 1025,0 20
16.02.2019 20:00:00 11,2 0,7 7 4 7 4 Z 1025,4 20
16.02.2019 19:00:00 11,8 1,4 4 2 - - N 1025,5 18
16.02.2019 18:00:00 12,7 0,8 4 2 7 4 N 1025,2 20
16.02.2019 17:00:00 14,3 1,9 4 2 18 10 N 1025,5 20
16.02.2019 16:00:00 14,3 1,0 14 8 - - ZW 1025,7 20
16.02.2019 15:00:00 14,5 0,2 14 8 22 12 ZW 1026,0 20
16.02.2019 14:00:00 14,4 0,7 14 8 18 10 WZW 1026,0 20
16.02.2019 13:00:00 13,4 2,0 14 8 - - WZW 1026,5 20
16.02.2019 12:00:00 11,8 1,8 14 8 22 12 ZW 1027,0 20
16.02.2019 11:00:00 9,5 1,5 18 10 22 12 ZW 1026,7 20
16.02.2019 10:00:00 8,0 0,9 11 6 - - Z 1026,9 20
16.02.2019 09:00:00 6,3 0,0 14 8 18 10 ZZW 1027,0 20
16.02.2019 08:00:00 5,5 -0,5 11 6 14 8 ZW 1026,5 19
16.02.2019 07:00:00 5,6 -0,8 4 2 - - N 1026,2 20
16.02.2019 06:00:00 6,5 -0,5 7 4 11 6 ZZW 1026,0 20
16.02.2019 05:00:00 6,1 -0,9 7 4 11 6 ZW 1026,0 20
16.02.2019 04:00:00 6,6 -0,9 7 4 - - ZZW 1026,4 20
16.02.2019 03:00:00 7,3 -0,9 4 2 14 8 N 1026,5 20
16.02.2019 02:00:00 7,1 -0,9 7 4 14 8 WZW 1027,0 20
16.02.2019 01:00:00 8,1 -0,7 4 2 - - N 1027,0 20
16.02.2019 00:00:00 8,5 -0,6 7 4 18 10 ZW 1027,0 20
15.02.2019 23:00:00 9,4 -0,7 11 6 18 10 Z 1027,0 20
15.02.2019 22:00:00 10,6 -1,9 7 4 - - ZZO 1027,2 20
15.02.2019 21:00:00 10,8 -1,5 7 4 14 8 Z 1027,5 20
15.02.2019 20:00:00 13,3 -1,5 4 2 4 2 N 1027,7 20
15.02.2019 19:00:00 13,9 0,6 4 2 - - N 1027,7 20
15.02.2019 18:00:00 14,3 0,8 4 2 4 2 N 1027,9 20
15.02.2019 17:00:00 16,3 -0,4 4 2 11 6 N 1027,9 20
15.02.2019 16:00:00 16,7 -0,9 11 6 - - ZZO 1028,4 20
15.02.2019 15:00:00 16,4 0,0 7 4 14 8 ZZO 1029,0 20

tt = temperatuur
td = dauwpunt
ff = windsnelheid
fx = windstoten
dd = windrichting
ppp = luchtdruk
vv = zicht

Weerstations in de omgeving